Погода в Таежном

Россия / Красноярский край     58°04′17″N   97°18′55″E
темп.,
°C
ветер,
м/с
пор.,
м/с
влажн.,
%
обл.,
%
осадки,
мм/ч
давл.,
гПа
погр.,
м
26 февраля, пт
пт2601:00−18з399593 0.3 1019418
04:00−22зюз399586 0.0 1021372
07:00−23зюз3139362 0.0 1023562
10:00−20зюз511770 0.0 10251025
13:00−19юз598249 0.1 10251862
16:00−19зюз6985100 0.3 10251689
19:00−24зюз31281100 0.3 1028450
22:00−25зюз41190100 0.0 1030475
27 февраля, сб
сб2701:00−25зюз41093100 0.0 1031500
04:00−25юз3994100 0.0 1031461
07:00−26юз3895100 0.1 1032269
10:00−24зюз478895 0.0 1032846
13:00−23зюз478797 0.1 1032911
16:00−23зюз4786100 0.1 10321082
19:00−24зюз2795100 0.1 1033461
22:00−24зюз2896100 0.0 1034453
28 февраля, вс
вс2801:00−25зюз2895100 0.1 1034474
04:00−26зюз3895100 0.0 1035426
07:00−27зюз279699 0.1 1036242
10:00−25зюз379095 0.0 1036644
13:00−23зюз368897 0.1 1036868
16:00−22зюз3687100 0.1 1035991
19:00−25зюз2295100 0.1 103626
22:00−28з229790 0.0 103619
1 марта, пн
пн101:00−30зюз129754 0.0 103619
04:00−32зюз11980 0.0 103519
07:00−33юз00990 0.0 103519
10:00−27всв00930 0.0 1033159
13:00−22всв228739 0.0 1030461
16:00−21всв2387100 0.0 1028559
19:00−27св229796 0.0 102722
22:00−30св239941 0.0 102731
2 марта, вт
вт201:00−32св229931 0.0 102727
04:00−33св2210039 0.0 102736
07:00−34св239940 0.0 102743
10:00−29всв369529 0.0 1025307
13:00−24всв488953 0.0 1024545
16:00−22всв488896 0.0 1022626
19:00−25всв4119398 0.0 1023448
22:00−29всв3109580 0.0 1023282